[[{"header":{"parameterUnit":"m.s-1","parameterCategory":1,"la1":30.2991,"la2":30.254,"lo1":-89.0895,"lo2":-89.0444,"dy":0.0017,"dx":0.0017,"nx":28,"ny":28,"refTime":"2025-03-09T09:00:00:Z","depth":0,"parameterNumber":2,"parameterNumberName":"U-component_of_WINDS"},"data":[0,0,0,0,0,0,0,0,0,0,0,0,0,0,0,0,0,0,0,0,0,0,0,0,0,0,0,0,0,0,0,0,0,0,0,0,0,0,0,0,0,0,0,0,0,0,0,0,0,0,0,0,0,0,0,0,0,0,1.7946,1.7946,0,1.7888,1.7887,1.7886,1.7817,1.7816,1.7815,1.7814,1.7749,1.7748,1.7748,0,0,0,0,0,0,0,0,0,0,0,0,0,1.7996,1.7995,1.7946,1.7946,1.7945,1.7888,1.7887,1.7886,1.7817,1.7816,1.7814,1.7813,1.7749,1.7749,1.7748,0,0,0,0,0,0,0,0,0,0,0,0,0,1.7959,1.7995,1.7946,1.7904,1.7899,1.7888,1.7887,1.7886,1.7817,1.7816,1.7814,1.7813,1.775,1.7749,1.7748,1.7772,0,0,1.7744,1.7744,0,0,0,0,0,0,0,0,1.7961,1.7958,1.7911,1.7907,1.7902,1.7858,1.7881,1.7848,1.7818,1.7848,1.7814,1.7812,1.7786,1.7782,1.7774,1.7769,1.7767,1.7744,1.7743,1.7743,1.7743,0,0,0,0,0,0,0,1.7964,1.796,1.7923,1.791,1.7905,1.7886,1.7879,1.7874,1.7827,1.7845,1.784,1.7834,1.7784,1.7776,1.7772,1.7766,1.7744,1.7743,1.7742,1.7742,1.7779,1.778,0,0,0,0,0,0,1.7974,1.7962,1.7925,1.7921,1.7928,1.7887,1.7879,1.7873,1.7827,1.7818,1.7836,1.7831,1.7778,1.7774,1.777,1.7796,1.7743,1.7742,1.7741,1.7777,1.7779,1.7781,0,0,0,0,0,0,1.7975,1.7971,1.7927,1.794,1.7933,1.7888,1.7882,1.7873,1.7865,1.7819,1.781,1.7837,1.7777,1.7771,1.7773,1.7793,1.7741,1.774,1.7775,1.7778,1.778,1.785,0,0,0,0,0,0,1.7977,1.7972,1.7981,1.7941,1.7933,1.7932,1.7883,1.7873,1.7864,1.7858,1.7818,1.781,1.7775,1.7775,1.7772,1.7791,1.774,1.7773,1.7776,1.7779,1.7845,1.7854,1.7862,0,0,0,0,0,1.7979,1.8002,1.7982,1.7978,1.7944,1.7934,1.7929,1.789,1.7866,1.7875,1.7846,1.7811,1.7792,1.7776,1.7771,1.7791,1.7772,1.7775,1.7779,1.7842,1.7853,1.7862,0,0,0,0,0,0,1.8044,1.7996,1.7973,1.7985,1.7964,1.7922,1.7932,1.7902,1.7887,1.7881,1.7832,1.7824,1.7831,1.7811,1.7794,1.7812,1.7777,1.778,1.7826,1.7836,1.7844,1.7849,1.7739,0,0,0,0,0,1.8061,1.8057,1.8015,1.8029,1.802,1.7978,1.7972,1.7944,1.792,1.791,1.7881,1.7858,1.7846,1.784,1.7827,1.7842,1.7833,1.7853,1.7862,1.7869,1.7872,1.7879,1.7888,1.7793,1.7793,1.7793,0,0,1.8093,1.8067,1.8067,1.8041,1.8022,1.8019,1.7971,1.7969,1.7966,1.7909,1.7909,1.7887,1.7858,1.7867,1.7869,1.785,1.7896,1.7873,1.7879,1.7878,1.7884,1.7893,1.7901,1.7795,1.7795,1.7794,0,0,1.8152,1.8131,1.8141,1.8123,1.8095,1.8067,1.807,1.8032,1.8016,1.8016,1.7974,1.7969,1.795,1.7931,1.7919,1.7972,1.794,1.7969,1.8012,1.802,1.8028,1.8034,1.8053,1.8061,1.7973,1.7973,1.7973,0,1.8195,1.819,1.815,1.8151,1.8141,1.8092,1.8101,1.8085,1.8054,1.8048,1.8027,1.8004,1.798,1.7985,1.7998,1.799,1.7991,1.7973,1.803,1.8036,1.8041,1.8059,1.8067,1.7977,1.7976,1.7976,1.7975,0,1.8246,1.8243,1.8254,1.8227,1.8218,1.8224,1.8184,1.8179,1.8153,1.8127,1.8128,1.8098,1.8079,1.8078,1.8051,1.8079,1.8068,1.8039,1.8002,1.8055,1.8071,1.8077,1.7982,1.7981,1.7979,1.7979,0,0,1.8343,1.8295,1.83,1.8287,1.8253,1.8249,1.8253,1.8236,1.8233,1.8213,1.8215,1.8201,1.8175,1.8162,1.8132,1.8139,1.8184,1.8109,1.8108,1.8125,1.8213,1.8235,1.8244,1.8162,1.8163,1.8164,1.8216,0,1.8395,1.8399,1.8364,1.8377,1.8374,1.8327,1.833,1.8309,1.8286,1.8279,1.8252,1.8243,1.8209,1.8201,1.8206,1.8177,1.8201,1.8173,1.8162,1.8162,1.8172,1.8252,1.8275,1.8325,1.8222,1.8223,1.8223,0,1.8456,1.8442,1.8456,1.8423,1.842,1.8423,1.8405,1.8399,1.8374,1.8357,1.8343,1.831,1.831,1.8275,1.8275,1.8257,1.825,1.8236,1.8237,1.8234,1.8196,1.8252,1.834,1.8348,1.8233,1.8232,1.8231,0,1.8527,1.8511,1.8517,1.8508,1.8469,1.8472,1.8456,1.843,1.8422,1.8406,1.84,1.8384,1.8375,1.8363,1.8326,1.8304,1.833,1.8292,1.8315,1.8316,1.8322,1.8322,1.8411,1.8318,1.8318,1.8318,1.8318,0,1.8589,1.86,1.8549,1.8553,1.8563,1.8522,1.8533,1.8511,1.8489,1.8487,1.8445,1.8445,1.8396,1.839,1.8361,1.8365,1.8361,1.8346,1.8339,1.835,1.8352,1.8345,1.8341,1.832,1.8319,1.8319,1.8318,0,1.8669,1.8636,1.864,1.8603,1.8594,1.8603,1.8571,1.8573,1.8547,1.8546,1.8543,1.8503,1.8493,1.8456,1.8436,1.8417,1.8431,1.8415,1.844,1.8435,1.846,1.8459,1.8547,1.8557,1.8458,1.8459,1.846,0,1.8712,1.8719,1.8683,1.868,1.8666,1.8661,1.8654,1.8613,1.8607,1.8581,1.8586,1.8573,1.8561,1.8548,1.8516,1.8502,1.8486,1.8518,1.8483,1.8495,1.8487,1.8487,1.8488,1.8525,1.8526,1.8528,1.8528,0,1.879,1.8773,1.8765,1.8751,1.8744,1.8731,1.8715,1.8714,1.8669,1.8664,1.8655,1.8646,1.8628,1.8616,1.8596,1.8578,1.8546,1.854,1.8544,1.8557,1.8571,1.8564,1.8461,1.8538,1.8537,1.8536,1.8536,1.8535,1.8853,1.8857,1.8834,1.8826,1.881,1.8796,1.8797,1.8772,1.8764,1.8747,1.8723,1.8718,1.8693,1.8664,1.8648,1.8642,1.8624,1.8631,1.8633,1.8635,1.8641,1.8572,1.8639,1.8638,1.8638,1.8638,1.8637,0,1.8929,1.8912,1.8906,1.8886,1.888,1.8851,1.8833,1.8829,1.8825,1.8806,1.8795,1.8785,1.8774,1.8742,1.8727,1.8729,1.8714,1.8726,1.8726,1.8722,1.8658,1.8656,1.8739,1.8739,1.8739,1.8739,1.8739,1.8739,1.8969,1.8975,1.8956,1.8955,1.8937,1.8932,1.8924,1.8911,1.8895,1.8887,1.8878,1.8857,1.8833,1.8816,1.8805,1.8795,1.8792,1.881,1.8796,1.8736,1.8727,1.8717,1.8715,1.8809,1.8809,1.8861,1.8861,1.8861]},{"header":{"parameterUnit":"m.s-1","parameterCategory":1,"la1":30.2991,"la2":30.254,"lo1":-89.0895,"lo2":-89.0444,"dy":0.0017,"dx":0.0017,"nx":28,"ny":28,"refTime":"2025-03-09T09:00:00:Z","depth":0,"parameterNumber":3,"parameterNumberName":"V-component_of_WINDS"},"data":[0,0,0,0,0,0,0,0,0,0,0,0,0,0,0,0,0,0,0,0,0,0,0,0,0,0,0,0,0,0,0,0,0,0,0,0,0,0,0,0,0,0,0,0,0,0,0,0,0,0,0,0,0,0,0,0,0,0,-2.2533,-2.2534,0,-2.2641,-2.2642,-2.2643,-2.2658,-2.2657,-2.2656,-2.2655,-2.2764,-2.2767,-2.2771,0,0,0,0,0,0,0,0,0,0,0,0,0,-2.2339,-2.2343,-2.2533,-2.2534,-2.2536,-2.2641,-2.2642,-2.2644,-2.2658,-2.2657,-2.2656,-2.2654,-2.2762,-2.2767,-2.2771,0,0,0,0,0,0,0,0,0,0,0,0,0,-2.2433,-2.2344,-2.2533,-2.2556,-2.2559,-2.264,-2.2642,-2.2644,-2.2658,-2.2657,-2.2655,-2.2654,-2.2761,-2.2766,-2.2772,-2.2838,0,0,-2.279,-2.2792,0,0,0,0,0,0,0,0,-2.2427,-2.244,-2.2551,-2.2554,-2.2558,-2.2634,-2.2614,-2.2709,-2.2659,-2.262,-2.2655,-2.2653,-2.2722,-2.2731,-2.2754,-2.2843,-2.2848,-2.279,-2.2794,-2.2796,-2.2798,0,0,0,0,0,0,0,-2.2421,-2.2435,-2.2576,-2.2552,-2.2557,-2.256,-2.2572,-2.2632,-2.2678,-2.2624,-2.2625,-2.2638,-2.2723,-2.2748,-2.2757,-2.2849,-2.279,-2.2795,-2.2799,-2.2801,-2.2999,-2.3001,0,0,0,0,0,0,-2.241,-2.243,-2.2572,-2.2579,-2.2488,-2.2565,-2.2578,-2.2611,-2.2678,-2.2686,-2.2639,-2.2638,-2.2739,-2.275,-2.2761,-2.2843,-2.2796,-2.2801,-2.2805,-2.2998,-2.3,-2.3002,0,0,0,0,0,0,-2.2406,-2.2423,-2.2568,-2.2505,-2.2524,-2.257,-2.2607,-2.2614,-2.264,-2.2689,-2.2697,-2.2656,-2.2739,-2.2752,-2.2819,-2.2847,-2.2804,-2.2809,-2.2995,-2.2998,-2.3001,-2.3008,0,0,0,0,0,0,-2.2401,-2.2421,-2.2447,-2.2505,-2.2527,-2.2625,-2.2609,-2.2617,-2.265,-2.2649,-2.2708,-2.2716,-2.2738,-2.281,-2.2825,-2.2854,-2.2814,-2.2993,-2.2997,-2.3,-2.3006,-2.3011,-2.3015,0,0,0,0,0,-2.2394,-2.2444,-2.2448,-2.2465,-2.256,-2.2626,-2.2639,-2.2664,-2.2652,-2.2678,-2.271,-2.2714,-2.2842,-2.2817,-2.2833,-2.2865,-2.2991,-2.2996,-2.3,-2.3004,-2.301,-2.3015,0,0,0,0,0,0,-2.2386,-2.2452,-2.2457,-2.2528,-2.2572,-2.2629,-2.2662,-2.267,-2.2718,-2.2715,-2.2745,-2.2758,-2.2823,-2.2851,-2.2822,-2.2933,-2.2915,-2.2923,-2.2913,-2.2919,-2.2924,-2.2916,-2.2819,0,0,0,0,0,-2.2393,-2.2442,-2.2497,-2.2554,-2.2576,-2.2615,-2.2645,-2.2662,-2.2708,-2.2726,-2.2763,-2.2807,-2.2857,-2.289,-2.2939,-2.301,-2.3023,-2.304,-2.3045,-2.3048,-2.3054,-2.3095,-2.3104,-2.3015,-2.3015,-2.3015,0,0,-2.2408,-2.2449,-2.2478,-2.2554,-2.2589,-2.2639,-2.2631,-2.2683,-2.2721,-2.2734,-2.2799,-2.2828,-2.2879,-2.2949,-2.2981,-2.2974,-2.3082,-2.3053,-2.3056,-2.306,-2.31,-2.3109,-2.3116,-2.3018,-2.3017,-2.3017,0,0,-2.2459,-2.2496,-2.2548,-2.2585,-2.2639,-2.2666,-2.2678,-2.2735,-2.2755,-2.2821,-2.2832,-2.2877,-2.2963,-2.2999,-2.3029,-2.3097,-2.3102,-2.3112,-2.3137,-2.3177,-2.3184,-2.319,-2.3215,-2.3224,-2.3118,-2.3118,-2.3118,0,-2.247,-2.2546,-2.2574,-2.2627,-2.266,-2.2675,-2.2729,-2.2763,-2.283,-2.2853,-2.2844,-2.2953,-2.2988,-2.3067,-2.3084,-2.3107,-2.3123,-2.3105,-2.3181,-2.3187,-2.3194,-2.3218,-2.3227,-2.3119,-2.3119,-2.3119,-2.3119,0,-2.2557,-2.261,-2.2646,-2.2712,-2.275,-2.2802,-2.2838,-2.2873,-2.2886,-2.2913,-2.2981,-2.3025,-2.3084,-2.3103,-2.3116,-2.3185,-2.3179,-2.3175,-2.3157,-2.3202,-2.3226,-2.3235,-2.312,-2.312,-2.3119,-2.3119,0,0,-2.2607,-2.2689,-2.2702,-2.2733,-2.2795,-2.2836,-2.289,-2.2949,-2.2978,-2.3024,-2.3071,-2.3144,-2.3141,-2.3175,-2.3193,-2.3227,-2.3279,-2.3219,-2.3221,-2.323,-2.3359,-2.3362,-2.3372,-2.3284,-2.3285,-2.3287,-2.3355,0,-2.2666,-2.2764,-2.2791,-2.2874,-2.2924,-2.2939,-2.2987,-2.303,-2.3057,-2.3103,-2.3133,-2.3185,-2.3177,-2.3198,-2.3233,-2.3266,-2.3306,-2.3261,-2.3327,-2.3329,-2.3314,-2.3384,-2.3387,-2.3449,-2.3364,-2.3365,-2.3366,0,-2.2749,-2.2798,-2.2886,-2.2944,-2.2966,-2.3008,-2.3064,-2.3108,-2.3158,-2.3175,-2.3214,-2.3229,-2.3286,-2.3266,-2.3346,-2.3315,-2.3343,-2.3364,-2.3367,-2.3374,-2.3351,-2.3394,-2.3469,-2.3478,-2.3381,-2.338,-2.3379,0,-2.2777,-2.2866,-2.293,-2.2956,-2.3025,-2.3054,-2.3084,-2.3132,-2.3166,-2.3215,-2.3238,-2.3293,-2.3323,-2.3365,-2.3394,-2.3376,-2.3472,-2.3453,-2.3488,-2.3487,-2.3507,-2.3506,-2.3589,-2.3525,-2.3525,-2.3524,-2.3524,0,-2.2841,-2.2894,-2.2944,-2.2984,-2.3045,-2.3075,-2.3134,-2.3165,-2.3208,-2.3254,-2.327,-2.3313,-2.3349,-2.3396,-2.3419,-2.3483,-2.3496,-2.3512,-2.3517,-2.3511,-2.3509,-2.353,-2.3527,-2.3527,-2.3526,-2.3526,-2.3526,0,-2.2883,-2.2918,-2.299,-2.305,-2.3066,-2.3108,-2.3159,-2.3198,-2.3227,-2.3285,-2.33,-2.3344,-2.3401,-2.3435,-2.3506,-2.3522,-2.3592,-2.3595,-2.3576,-2.3578,-2.3611,-2.3608,-2.3711,-2.3727,-2.3652,-2.3652,-2.3653,0,-2.2921,-2.2963,-2.3028,-2.3061,-2.3091,-2.3143,-2.3178,-2.3211,-2.3246,-2.3307,-2.3339,-2.3398,-2.3446,-2.3537,-2.3575,-2.363,-2.3635,-2.3668,-2.3643,-2.3636,-2.3637,-2.3634,-2.3639,-2.3672,-2.3672,-2.3673,-2.3673,0,-2.2987,-2.3003,-2.3053,-2.3111,-2.3153,-2.3199,-2.3245,-2.3271,-2.3311,-2.335,-2.341,-2.3447,-2.3521,-2.3579,-2.3638,-2.3668,-2.3678,-2.3681,-2.3692,-2.3686,-2.3673,-2.3681,-2.3588,-2.3678,-2.3678,-2.3677,-2.3677,-2.3677,-2.3029,-2.3067,-2.312,-2.3176,-2.3214,-2.3257,-2.3298,-2.3332,-2.3382,-2.3446,-2.3462,-2.3524,-2.3574,-2.3654,-2.3686,-2.3735,-2.373,-2.3745,-2.3749,-2.3753,-2.3755,-2.3665,-2.3746,-2.3746,-2.3746,-2.3745,-2.3745,0,-2.3096,-2.3131,-2.3182,-2.3247,-2.3292,-2.3298,-2.335,-2.3386,-2.3441,-2.3488,-2.3535,-2.3604,-2.3661,-2.3704,-2.3762,-2.3793,-2.3799,-2.3807,-2.3806,-2.3813,-2.3756,-2.3741,-2.3802,-2.3802,-2.3802,-2.3802,-2.3802,-2.3802,-2.3136,-2.3202,-2.3224,-2.331,-2.3344,-2.3406,-2.3436,-2.3476,-2.3513,-2.3589,-2.3637,-2.3665,-2.3711,-2.3773,-2.3825,-2.3836,-2.3857,-2.3865,-2.3877,-2.3823,-2.3817,-2.3811,-2.3797,-2.3869,-2.3869,-2.393,-2.3931,-2.3931]}]]